Location: Marcé
(47.5801°N, 0.3280°W)
Time: 19:10:01
(UTC+01:00)

Tiros 1 - Pass Details

Date: 02 December 2021
Orbit: 629 x 664 km, 48.4° (Epoch: 26 January)

Event Time Altitude Azimuth Distance (km) Brightness Sun altitude
Rises 22:17:38 0° 264° (W) 2,934 - -50.2°
Reaches altitude 10° 22:19:57 10° 265° (W) 2,032 - -50.5°
Maximum altitude 22:24:39 83° 354° (N) 656 - -51.2°
Drops below altitude 10° 22:29:24 10° 82° (E) 2,057 - -51.9°
Sets 22:31:45 0° 83° (E) 2,974 - -52.3°
